Regional Weather Roundup
Issued by NWS

Home | Current Version | Previous Version | Text Only | Print | Product List | Glossary On
Versions: 1 2 3 4 5 6 7 8 9 10 11 12 13 14 15 16 17 18 19 20 21 22 23 24 25 26 27 28
000
ASUS45 KPSR 222210
RWRAZ

ARIZONA HOURLY REGIONAL WEATHER ROUNDUP
NATIONAL WEATHER SERVICE PHOENIX AZ
300 PM MST WED MAR 22 2017

NOTE: FAIR INDICATES FEW OR NO CLOUDS BELOW 12,000 FEET WITH NO
SIGNIFICANT WEATHER AND/OR OBSTRUCTIONS TO VISIBILITY.

AZZ001>003-036-222300-
NORTHWEST ARIZONA

CITY           SKY/WX    TMP DP  RH WIND       PRES   REMARKS
BULLHEAD CITY  PTSUNNY   81  39  22 S18G26    29.78F
KINGMAN        CLOUDY    67  27  22 S22G32    29.89F
$$

AZZ004>008-015-016-018-222300-
NORTH CENTRAL ARIZONA

CITY           SKY/WX    TMP DP  RH WIND       PRES   REMARKS
GRAND CANYON   CLOUDY    60  34  37 SW23G37   29.98F
WILLIAMS       CLOUDY    52  45  76 S12       29.99F HAZE
PRESCOTT       CLOUDY    62  41  46 S17G23    29.97F
FLAGSTAFF      CLOUDY    53  37  54 SW18G25   30.03F
PAYSON         CLOUDY    66  25  20 S9G17     30.02F
PAGE           CLOUDY    69  32  25 NW5       29.83F
$$

AZZ009>014-017-222300-
NORTHEAST ARIZONA

CITY           SKY/WX    TMP DP  RH WIND       PRES   REMARKS
WINSLOW        PTSUNNY   73  19  13 SW22G28   29.93F
SAINT JOHNS    PTSUNNY   73  15  11 W24G33    29.95F
WINDOW ROCK    CLOUDY    68  21  16 SW20G25   30.03F
SHOW LOW       PTSUNNY   63  18  17 SW24G32   30.05S
$$

AZZ023-222300-
GREATER PHOENIX AREA

CITY           SKY/WX    TMP DP  RH WIND       PRES   REMARKS
PHOENIX        CLOUDY    79  47  32 SW7       29.83F
BUCKEYE        CLOUDY    79  48  34 W10       29.85F
GLENDALE       PTSUNNY   79  48  34 S10G17    29.87F
LUKE AFB       CLOUDY    78  49  35 SW10      29.84F
DEER VALLEY    CLOUDY    76  48  37 SW6       29.85F
SCOTTSDALE     CLOUDY    78  46  32 W6        29.87F
CHANDLER       PTSUNNY   81  43  26 W7        29.85S
$$

AZZ027-028-222300-
SOUTHWEST MARICOPA COUNTY AND PINAL COUNTY

CITY           SKY/WX    TMP DP  RH WIND       PRES   REMARKS
CASA GRANDE    NOT AVBL
GILA BEND      PTSUNNY   81  47  30 VRB7      29.85F
$$

AZZ503-504-507>509-222300-
SOUTHEAST ARIZONA

CITY           SKY/WX    TMP DP  RH WIND       PRES   REMARKS
TUCSON         PTSUNNY   85  26  11 NW10G16   29.91F
DAVIS-MONTHAN  PTSUNNY   82  27  13 W8        29.90F
RYAN FIELD     SUNNY     82  23  11 W13       29.91F
NOGALES        MOSUNNY   81  19  10 S17G30    29.99F
SIERRA VISTA   PTSUNNY   78  12   8 SW23G30   30.02S
DOUGLAS        SUNNY     85  16   7 SW24G32   29.97F
SAFFORD        MOSUNNY   88  19   8 W13       29.84F
$$

AZZ020-021-025-026-031-222300-
SOUTHWEST ARIZONA

CITY           SKY/WX    TMP DP  RH WIND       PRES   REMARKS
YUMA           PTSUNNY   81  50  33 W16       29.84F
$$

CAZ031-033-041-043-047-048-061-222300-
SOUTHERN CALIFORNIA

CITY           SKY/WX    TMP DP  RH WIND       PRES   REMARKS
DOWNTOWN L.A.  CLOUDY    66  51  58 VRB6      29.97F
L.A. AIRPORT   CLOUDY    63  54  72 W18       29.98F
SAN DIEGO      PTSUNNY   65  52  62 W8        30.02F
BURBANK        CLOUDY    65  41  41 CALM      29.96F
ONTARIO        PTSUNNY   66  45  46 SW12G17   29.96F
RIVERSIDE      PTSUNNY   67  50  54 W12G23    29.96F
PALM SPRINGS   CLOUDY    76  39  26 NW23G32   29.85F
EL CENTRO NAS  PTSUNNY   76  40  27 W25G31    29.88F
IMPERIAL       PTSUNNY   74  49  41 W20       29.85F
BLYTHE         MOSUNNY   80  44  27 SW22      29.84F
NEEDLES        MOSUNNY   80  43  26 SW16G26   29.81F
$$

NVZ020-UTZ003-222300-
SOUTHERN NEVADA-UTAH

CITY           SKY/WX    TMP DP  RH WIND       PRES   REMARKS
LAS VEGAS      PTSUNNY   70  30  22 SW21G28   29.79F
SALT LAKE CITY CLOUDY    57  46  66 N20       29.80F
$$

NMZ009-TXZ055-222300-
NEW MEXICO-WEST TEXAS

CITY           SKY/WX    TMP DP  RH WIND       PRES   REMARKS
ALBUQUERQUE    CLOUDY    79  13   8 SW12      29.95F
EL PASO        MOSUNNY   92   6   4 SW20G29   29.93F
$$


........................KEY........................
SKY/WX - SKY CONDITION/WEATHER
TMP    - TEMPERATURE IN FAHRENHEIT
DP     - DEW POINT IN FAHRENHEIT
RH     - RELATIVE HUMIDITY IN PERCENT
WIND   - DIRECTION AND SPEED IN MILES PER HOUR (MPH)
VRB    - VARIABLE WIND DIRECTION
PRES   - MEAN SEA LEVEL PRESSURE IN INCHES OF MERCURY
         F - FALLING PRESSURE   R - RISING PRESSURE
         S - STEADY PRESSURE
VSB    - VISIBILITY IN MILES
HX     - HEAT INDEX IN FAHRENHEIT
WCI    - WIND CHILL INDEX IN FAHRENHEIT
TC     - TEMPERATURE IN CELSIUS WHICH IS ALSO KNOWN AS
         TEMPERATURE IN CENTIGRADE
AFB    - AIR FORCE BASE
         LUKE AFB IS LUKE AIR FORCE BASE
         DAVIS-MONTHAN IS DAVIS-MONTHAN AIR FORCE BASE
NAS    - NAVAL AIR STATION
         EL CENTRO NAS IS EL CENTRO NAVAL AIR STATION
N/A    - NOT AVAILABLE





USA.gov is the U.S. government's official web portal to all federal, state and local government web resources and services.